Wind_Speed
15 16 15 14 14 14 13 12 12 12 12 13 14 16 14 12 9 6 6 10 12 14 13 18 9 8 4 3 2 2 3 0 3 2 3 1 2 2 3 10 1 5 5 8 27
17 16 15 15 15 14 14 13 12 12 11 12 15 16 14 10 6 9 8 15 18 17 16 14 6 8 3 1 2 3 3 5 4 4 4 2 4 4 2 3 3 4 9 26 28
18 17 15 14 15 14 15 15 14 12 11 12 14 14 10 6 3 6 15 15 21 17 8 2 17 2 3 1 3 2 4 4 5 8 5 5 4 6 6 4 5 8 15 18 23
18 17 16 15 14 14 14 15 13 11 10 10 13 11 5 1 2 4 19 19 18 13 6 12 4 2 2 2 2 2 7 6 6 5 3 3 5 6 7 7 7 13 20 18 18
19 17 15 15 14 14 14 14 13 10 9 9 10 7 1 2 7 8 20 21 19 14 3 2 3 4 4 4 4 3 4 5 10 11 9 8 9 6 9 7 5 15 19 18 15
20 18 15 13 12 12 12 13 11 8 8 8 8 1 1 3 3 16 21 22 17 10 3 7 5 5 2 1 3 2 6 13 8 3 2 6 3 5 2 10 11 17 19 18 19
21 17 15 12 10 10 9 9 8 7 6 7 5 1 2 8 2 19 20 20 13 7 2 3 2 1 4 3 2 2 4 7 3 1 2 5 4 6 3 10 16 15 16 17 16
19 16 15 10 6 5 6 6 6 5 4 3 3 1 6 3 5 22 21 10 11 2 3 5 4 3 0 5 2 0 3 5 6 7 3 2 6 4 9 13 14 15 14 14 15
17 14 13 9 3 2 4 4 4 4 2 4 2 1 7 2 6 22 22 8 9 4 8 3 3 0 3 2 3 5 1 1 7 4 2 1 6 5 8 9 12 14 14 13 13
17 12 10 8 4 4 4 5 5 3 3 2 1 2 2 5 7 17 12 15 4 3 5 6 4 3 1 2 4 5 4 3 4 3 2 5 14 4 9 13 13 13 12 12 13
16 10 8 6 5 5 10 6 4 2 2 7 3 3 3 4 11 10 18 8 5 5 2 4 3 5 5 6 4 2 0 4 4 6 2 6 10 8 10 12 11 11 12 12 14
16 9 6 4 2 2 6 3 4 3 5 7 4 7 7 4 3 5 25 7 5 4 5 4 6 10 4 1 2 10 6 6 6 4 5 7 12 5 11 17 18 18 15 15 12
15 9 6 7 4 6 4 5 1 5 2 6 4 5 5 7 6 8 19 5 5 7 9 7 8 1 4 5 3 9 6 5 5 5 2 4 9 2 5 7 13 15 17 16 17
15 9 4 6 2 1 3 2 13 9 4 5 3 7 5 6 5 7 20 7 4 11 4 7 1 5 2 6 5 8 6 11 5 3 5 4 6 7 3 11 13 15 16 18 17
17 9 3 4 4 2 1 15 6 4 4 2 3 1 0 8 2 3 6 2 7 6 7 12 2 4 6 10 6 12 5 4 7 4 2 2 2 7 3 5 12 16 16 19 20
18 9 4 4 5 5 9 10 4 5 3 3 2 2 5 2 2 2 3 6 3 5 2 6 1 6 7 4 8 8 6 5 5 4 0 2 6 6 4 5 4 12 17 19 20
16 6 8 6 2 2 12 3 5 5 3 7 4 5 3 5 5 6 1 3 2 1 3 5 3 3 4 3 4 4 6 4 6 4 5 2 3 5 13 10 6 9 16 19 19
10 3 5 9 3 3 3 5 5 2 2 2 4 3 6 6 3 7 3 3 5 5 3 3 6 1 1 2 2 1 5 5 3 2 5 2 5 2 6 9 8 7 8 13 16
5 3 3 10 6 5 5 4 6 4 3 4 3 7 7 5 3 4 4 5 3 5 3 3 4 5 5 3 3 1 1 3 4 2 2 4 7 6 17 11 9 8 7 7 4
3 2 5 5 10 4 5 4 1 2 1 4 3 3 4 7 5 5 4 4 6 4 2 1 2 2 5 1 4 4 2 1 3 2 3 5 3 4 15 15 13 7 7 6 4
3 3 10 4 1 5 3 3 2 3 2 4 3 3 2 1 2 3 1 3 4 7 6 2 3 6 3 5 1 5 4 4 4 4 5 1 5 5 9 10 11 9 7 8 10
3 3 11 4 4 1 2 1 3 5 6 5 5 4 2 2 2 2 3 2 9 3 3 4 4 2 3 7 4 2 4 5 4 3 1 2 5 3 7 11 10 9 8 8 9
2 2 7 1 3 3 5 3 3 6 5 3 4 4 2 2 2 2 2 4 7 4 1 3 1 2 6 6 3 4 3 5 4 3 3 4 5 3 16 18 17 12 9 7 7
3 3 5 5 1 3 2 3 2 5 4 4 3 5 4 4 5 2 3 2 4 2 7 4 3 6 7 4 3 3 2 2 4 3 3 6 10 9 18 18 21 21 16 9 9
4 1 3 3 4 3 1 3 2 3 4 7 4 4 1 2 2 0 1 5 3 5 3 4 3 1 2 2 1 4 6 8 8 6 7 8 7 5 11 16 17 17 17 13 8
3 3 4 1 3 3 4 2 2 3 2 2 4 1 1 3 5 4 4 3 5 2 3 3 1 0 0 1 3 6 7 8 6 2 6 5 2 5 10 11 12 17 18 20 19
5 2 3 3 4 2 1 2 2 1 2 3 3 3 2 2 4 6 5 2 1 4 4 2 4 3 4 4 7 6 3 2 3 2 2 2 3 9 14 16 16 17 18 19 21
Wind_Direction
307 301 299 295 294 294 296 295 300 309 316 323 322 325 324 314 300 268 233 218 194 177 164 155 164 144 91 87 105 87 61 241 244 186 268 79 159 98 323 135 150 169 138 154 145
316 306 297 290 286 285 286 288 291 302 312 322 324 330 326 317 296 245 209 190 178 167 157 144 157 145 63 94 134 122 134 222 204 176 208 268 208 138 93 146 54 48 94 126 141
320 312 300 286 283 279 280 282 286 295 309 320 325 331 329 323 296 233 177 174 170 164 146 115 136 93 103 327 190 185 202 213 243 243 203 216 223 137 122 218 212 176 148 147 147
323 314 303 290 278 272 273 277 278 288 302 316 322 328 333 358 207 173 179 162 155 161 138 124 103 72 120 187 185 271 250 254 283 255 266 239 157 172 164 193 196 164 164 153 159
327 319 307 293 278 267 266 268 269 283 297 311 320 323 7 264 253 200 177 161 154 146 156 121 145 160 216 157 165 221 273 280 269 270 260 252 212 188 202 202 183 154 162 165 163
331 322 312 303 283 268 260 261 264 276 291 306 318 299 271 286 283 181 178 166 171 151 207 157 202 204 122 239 175 211 279 286 298 279 273 131 133 154 280 138 152 160 169 170 175
338 332 323 307 290 264 254 251 252 260 281 303 311 209 232 237 271 179 175 169 161 194 131 229 174 165 138 195 234 265 320 334 313 102 231 147 111 238 141 152 159 167 175 175 187
345 342 336 323 301 247 233 233 238 246 268 288 144 151 247 276 285 176 174 151 185 158 124 107 110 99 152 326 184 31 64 13 308 346 106 89 272 232 163 158 164 170 175 182 188
351 352 352 356 360 172 192 200 202 230 191 123 113 196 273 352 150 178 178 151 158 34 58 69 55 317 3 357 32 352 270 260 316 312 294 30 269 217 162 159 172 177 184 180 185
355 358 4 19 61 118 151 156 145 117 127 117 289 342 282 248 157 165 166 154 110 70 4 23 42 339 2 78 347 306 352 332 257 281 260 247 260 244 181 167 185 184 189 192 185
358 359 5 28 65 108 121 114 35 6 209 194 206 255 359 316 127 157 154 112 106 74 183 348 3 249 269 346 8 326 293 272 251 253 289 270 276 235 187 191 184 195 198 200 209
356 355 357 3 9 152 165 155 204 170 312 234 238 282 250 305 348 104 157 157 153 151 123 25 249 251 350 181 242 293 283 261 275 269 170 317 281 250 180 203 196 191 199 205 210
355 350 334 335 3 137 202 221 279 272 133 295 193 216 213 153 221 200 169 153 177 147 189 171 235 85 180 267 233 250 259 300 271 338 301 334 293 263 218 181 203 205 204 205 205
357 339 313 339 117 318 237 321 314 169 66 280 269 272 172 160 282 182 181 153 193 194 203 221 264 224 145 257 150 280 206 261 298 49 292 97 287 311 220 211 197 202 200 202 205
351 330 261 260 301 212 72 339 120 111 55 197 199 226 36 157 281 32 161 46 157 169 130 245 237 184 210 225 151 246 333 280 289 208 343 138 102 269 42 227 225 211 208 205 202
347 314 222 236 240 254 335 345 133 41 18 25 88 163 121 315 297 339 87 48 110 155 309 273 299 175 221 266 194 266 347 21 42 95 252 283 161 287 238 228 237 220 212 206 201
341 262 203 190 224 296 335 61 40 99 328 333 340 30 77 9 20 39 115 65 116 53 326 326 236 279 201 302 36 96 58 340 0 11 219 301 118 259 312 295 240 221 211 209 204
340 200 208 221 232 326 25 52 74 264 307 6 18 37 70 359 13 11 51 67 28 89 86 99 324 146 118 208 197 116 129 149 261 270 289 350 246 247 320 310 353 302 236 204 202
35 68 38 342 265 216 72 68 187 208 299 13 31 64 354 2 19 74 63 1 300 33 112 93 297 316 24 342 92 160 1 178 124 19 32 281 309 334 343 348 2 5 16 347 257
19 61 37 2 129 95 77 205 197 227 359 59 96 35 37 329 26 49 26 335 327 27 223 166 335 314 290 322 24 94 148 3 19 227 252 310 286 266 334 326 324 323 326 311 278
24 60 354 148 112 49 119 215 287 358 55 64 132 103 91 360 331 37 321 287 341 332 52 62 93 293 350 39 221 2 11 36 110 131 168 222 268 212 297 310 301 305 303 310 308
6 61 8 137 52 26 90 283 328 353 7 57 88 82 137 71 53 76 115 96 333 336 21 21 127 276 271 306 282 312 126 128 109 280 5 161 266 155 333 346 353 322 312 305 301
36 273 1 116 101 359 318 30 71 31 25 54 72 50 29 71 92 94 56 198 12 30 126 185 305 33 357 351 355 38 350 101 103 81 227 150 263 23 2 349 341 339 306 294 296
46 21 341 41 42 105 43 16 77 13 64 63 87 63 65 45 4 159 358 264 357 105 46 95 144 170 191 194 162 199 261 59 124 119 216 232 297 10 349 341 330 329 338 295 291
26 43 178 349 358 33 27 14 53 21 25 37 50 73 97 91 19 169 291 326 352 351 49 92 181 251 259 279 286 247 233 230 203 202 181 250 212 13 338 319 316 313 327 331 275
64 29 359 337 299 340 4 359 73 353 54 8 102 219 147 163 201 232 166 201 240 22 54 15 184 206 273 89 216 253 255 246 239 271 258 300 274 358 322 320 337 349 343 334 325
25 49 105 317 345 94 292 302 1 230 92 88 226 166 202 266 220 227 196 188 175 169 186 101 122 75 267 345 328 314 275 143 144 85 238 181 337 327 340 341 331 338 349 338 327
Height
767 765 764 763 762 761 760 758 758 757 756 755 752 750 748 746 745 745 742 731 732 733 735 738 746 749 750 752 754 756 779 786 776 769 760 746 750 740 742 748 744 745 754 753 763
764 762 760 759 759 758 757 756 755 755 755 753 750 749 746 744 743 740 726 727 730 734 736 740 746 747 754 754 756 764 778 770 751 750 755 746 746 745 751 754 754 752 754 756 764
761 759 757 756 755 755 753 753 752 753 753 752 749 747 745 743 745 727 726 727 730 738 741 742 745 748 759 758 758 761 769 751 744 738 739 744 743 742 754 763 753 756 758 759 765
758 756 753 752 752 751 751 750 749 750 751 750 748 746 745 745 754 723 726 730 736 740 742 741 745 754 760 763 755 767 751 749 741 733 736 742 736 744 745 746 741 746 749 755 762
755 752 750 748 748 748 747 747 747 748 749 748 747 745 746 746 733 723 726 734 737 741 742 744 747 752 758 758 758 764 750 740 734 732 732 730 736 737 740 738 740 744 750 755 762
752 749 746 744 744 744 744 744 745 746 747 746 745 745 746 749 723 723 727 735 738 741 739 743 742 744 750 754 756 749 746 742 733 730 728 733 737 734 731 733 740 746 749 754 757
750 745 743 741 740 740 741 742 743 744 745 744 744 744 745 735 725 727 731 735 740 741 741 742 741 744 748 753 743 746 754 742 734 729 734 729 747 745 732 735 741 747 750 753 757
747 743 740 738 737 737 738 740 741 741 743 743 743 744 740 725 724 728 732 737 741 742 742 742 741 744 747 746 748 754 755 771 739 730 730 734 762 734 730 736 742 744 751 754 758
746 742 739 736 735 736 737 738 739 740 741 742 744 744 738 726 726 729 733 736 740 740 741 742 741 749 751 759 768 766 776 768 755 731 732 737 750 731 730 737 743 744 746 751 757
744 741 738 736 736 736 737 738 739 741 742 744 744 747 731 726 722 728 734 737 741 743 745 747 754 760 762 767 784 773 771 763 766 744 736 745 744 734 733 735 740 742 744 748 752
742 740 738 737 736 736 738 739 744 747 742 735 734 730 722 719 721 728 733 737 741 749 765 757 769 775 748 742 753 761 768 770 755 739 744 745 742 734 732 735 740 743 743 744 744
740 738 737 736 735 736 737 737 735 736 744 726 730 728 724 722 728 729 732 741 749 765 762 772 779 748 747 750 759 753 766 766 750 737 746 744 741 726 728 727 726 732 737 739 741
739 737 735 734 733 734 734 732 732 732 746 732 727 726 722 721 727 728 727 735 744 761 765 775 753 740 750 753 763 763 763 754 757 743 739 745 744 730 722 719 720 723 726 729 733
737 734 733 733 736 732 731 730 728 729 767 745 732 721 718 718 728 712 716 725 741 755 754 763 745 747 757 760 757 774 740 743 749 761 782 744 791 741 728 724 720 719 721 723 726
734 731 731 730 730 730 729 727 725 728 792 732 727 712 715 725 720 716 717 720 743 746 754 756 745 754 759 751 746 753 734 747 747 761 763 765 778 747 730 737 724 713 713 713 715
730 727 728 728 728 725 725 724 727 768 776 738 722 726 730 723 722 718 718 716 724 741 744 747 734 741 742 734 738 731 747 756 768 774 793 765 771 760 737 721 713 706 704 703 706
724 723 724 726 725 724 723 724 769 783 740 748 741 736 735 743 733 737 736 738 754 766 768 755 745 734 729 742 737 746 774 801 797 804 792 769 770 750 728 712 708 701 696 695 695
719 720 721 722 723 723 723 746 774 751 748 736 744 739 751 749 744 750 753 764 750 758 783 782 780 740 727 737 746 754 768 801 801 811 796 768 771 740 721 707 697 695 689 689 693
719 720 722 723 720 724 736 775 766 752 738 741 742 760 763 755 751 755 766 774 760 754 769 782 768 738 732 733 737 753 771 764 789 796 805 782 756 733 715 709 702 702 698 701 697
721 720 722 721 721 724 751 766 753 742 736 742 761 761 770 766 760 762 768 761 764 754 752 763 778 750 743 736 739 744 751 777 797 793 790 789 771 772 743 728 716 702 701 697 696
722 728 724 721 723 736 763 761 747 737 736 746 758 765 766 767 766 769 776 765 760 757 753 759 775 768 752 765 766 766 775 784 791 801 805 807 785 749 746 735 726 712 705 704 699
728 742 726 724 744 768 763 752 746 746 743 746 752 757 762 768 768 770 773 767 757 757 764 767 787 790 771 764 762 757 767 785 803 790 807 803 782 731 738 730 725 716 710 705 700
745 745 727 726 762 768 758 751 750 752 756 751 759 760 762 770 774 770 771 762 761 762 767 766 789 807 791 778 764 771 766 777 793 800 798 802 777 739 733 730 724 723 714 704 699
749 753 747 745 764 761 761 761 757 750 756 758 761 762 768 777 777 774 773 763 764 763 764 768 792 790 800 781 778 776 767 767 783 802 796 794 769 754 751 746 732 721 717 709 702
761 777 778 777 768 770 766 761 762 764 756 759 765 767 769 777 779 777 774 771 765 766 768 777 790 784 778 775 774 773 774 775 780 778 783 769 777 769 764 754 743 731 718 712 708
774 781 779 778 777 767 773 771 765 763 760 765 768 766 767 772 772 777 773 777 775 770 772 785 791 785 781 779 777 778 772 772 775 768 775 768 765 763 759 751 740 732 725 716 705
779 780 781 780 778 773 776 769 765 763 760 759 761 765 767 764 761 761 765 767 768 771 781 786 797 801 798 793 784 784 765 764 769 771 770 775 772 765 759 753 746 735 731 724 709